SCP
0 0 0 0 0 0 0 0 0 0 0 0 0 0 0 0 0 0 0 0 0 0 0 0 0 0 0 0 0 0 0 0 0 0 0 0 0 0 0 0 0 0 0
0 0 0 0 0 0 0 0 0 0 0 0 0 0 0 0 0 0 0 0 0 0 0 0 0 0 0 0 0 0 0 0 0 0 0 0 0 0 0 0 0 0 0
0 0 0 0 0 0 0 0 0 0 0 0 0 0 0 0 0 0 0 0 0 0 0 0 0 0 0 0 0 0 0 0 0 0 0 0 0 0 0 0 0 0 0
0 0 0 0 0 0 0 0 0 0 0 0 0 0 0 0 0 0 0 0 0 0 0 0 0 0 0 0 0 0 0 0 0 0 0 0 0 0 0 0 0 0 0
0 0 0 0 0 0 0 0 0 0 0 0 0 0 0 0 0 0 0 0 0 0 0 0 0 0 0 0 0 0 0 0 0 0 0 0 0 0 0 0 0 0 0
0 0 0 0 0 0 0 0 0 0 0 0 0 0 0 0 0 0 0 0 0 0 0 0 0 0 0 0 0 0 0 0 0 0 0 0 0 0 0 0 0 0 0
0 0 0 0 0 0 0 0 0 0 0 0 0 0 0 0 0 0 0 0 0 0 0 0 0 0 0 0 0 0 0 0 0 0 0 0 0 0 0 0 0 0 0
0 0 0 0 0 0 0 0 0 0 0 0 0 0 0 0 0 0 0 0 0 0 0 0 0 0 0 0 0 0 0 0 0 0 0 0 0 0 0 0 0 0 0
0 0 0 0 0 0 0 0 0 0 0 0 0 0 0 0 0 0 0 0 0 0 0 0 0 0 0 0 0 0 0 0 0 0 0 0 0 0 0 0 0 0 0
0 0 0 0 0 0 0 0 0 0 0 0 0 0 0 0 0 0 0 0 0 0 0 0 0 0 0 0 0 0 0 0 0 0 0 0 0 0 0 0 0 0 0
0 0 0 0 0 0 0 0 0 0 0 0 0 0 0 0 0 0 0 0 0 0 0 0 0 0 0 0 0 0 0 0 0 0 0 0 0 0 0 0 0 0 0
-0 -0 0 0 0 0 0 0 0 0 0 0 0 0 0 0 0 0 0 0 0 0 0 0 0 0 0 0 0 0 0 0 0 0 0 0 0 0 0 0 0 0 0
0 0 -0 0 0 0 0 0 0 0 0 0 0 0 0 0 0 0 0 0 0 0 0 0 0 0 0 0 0 0 0 0 0 0 0 0 0 0 0 0 0 0 0
0 0 -0 -0 -0 0 0 0 0 0 0 0 0 0 0 0 0 0 0 0 0 0 0 0 0 0 0 0 0 0 0 0 0 0 0 0 0 0 0 0 0 0 0
0 0 -0 -0 -0 -0 -0 0 0 0 0 0 0 0 0 0 0 0 0 0 0 0 0 0 0 0 0 0 0 0 0 0 0 0 0 0 0 0 0 0 0 0 0
-0 0 -0 -0 -0 -0 -0 -0 -0 0 0 0 0 0 0 0 0 0 0 0 0 0 0 0 0 0 0 0 0 0 0 0 0 0 0 0 0 0 0 0 0 0 0
0 0 0 -0 -0 -0 -0 -0 -0 -0 0 0 0 0 0 0 0 0 0 0 0 0 0 0 0 0 0 0 0 0 0 0 0 0 0 0 0 0 0 0 0 0 0
0 0 0 0 -0 -0 -0 -0 -0 -0 -0 0 0 0 0 0 0 0 0 0 0 0 0 0 0 0 0 0 0 0 0 0 0 0 0 0 0 0 0 0 0 0 0
0 0 0 0 0 0 -0 -0 -0 -0 0 0 -0 0 0 0 0 0 0 0 0 0 0 0 0 0 0 0 0 0 0 0 0 0 0 0 0 0 0 0 0 0 0
0 0 0 0 0 0 0 0 -0 -0 0 0 -0 0 0 0 0 0 0 0 0 0 0 0 0 0 0 0 0 0 0 0 0 0 0 0 0 0 0 0 0 0 0
0 0 0 0 0 0 0 0 0 0 -0 -0 -0 0 0 0 0 0 0 0 0 0 0 0 0 0 0 0 0 0 0 0 0 0 0 0 0 0 0 0 0 0 0
0 0 0 0 0 0 0 -0 -0 -0 -0 -0 -0 -0 0 0 0 0 0 0 0 0 0 0 0 0 0 0 0 0 0 0 0 0 0 0 0 0 0 0 0 0 0
0 0 0 0 0 0 -0 -0 -0 -0 0 0 -0 -0 -0 0 0 0 0 0 0 0 0 0 0 0 0 0 0 0 0 0 0 0 0 0 0 0 0 0 0 0 0
0 0 0 0 0 0 0 -0 -0 -0 -0 0 0 -0 -0 -0 0 0 0 0 0 0 0 0 0 0 0 0 0 0 0 0 0 0 0 0 0 0 0 0 0 0 0
0 0 0 0 0 0 0 0 -0 -0 -0 -0 -0 -0 -0 -0 -0 -0 0 0 0 0 0 0 0 0 0 0 0 0 0 0 0 0 0 0 0 0 0 0 0 0 0
0 0 0 0 0 0 0 0 0 -0 -0 -0 -0 -0 -0 -0 -0 -0 -0 0 0 0 0 0 0 0 0 0 0 0 0 -0 0 0 0 0 0 0 0 0 0 0 0
Wind_Speed
4 4 4 4 4 4 4 5 5 5 5 5 5 5 5 5 5 5 5 6 6 5 6 6 7 7 6 6 6 6 6 6 6 5 4 3 4 5 4 5 6 6 5
4 4 4 4 4 4 4 5 5 5 4 4 5 5 5 5 5 5 6 5 5 5 6 7 8 6 8 7 6 6 6 5 6 6 4 4 5 5 5 6 5 5 5
4 4 4 4 4 4 5 5 5 4 4 4 5 5 5 4 4 5 5 6 6 7 7 7 8 7 8 7 7 7 6 6 6 5 5 4 4 5 5 5 6 5 6
4 4 3 4 4 5 5 5 5 4 4 4 5 4 4 4 4 5 5 6 7 7 7 7 8 8 9 8 7 7 6 6 6 6 5 5 5 5 5 5 5 5 4
4 4 3 3 4 4 5 5 5 4 4 4 4 4 4 4 4 4 5 6 6 7 7 7 7 6 6 7 6 6 7 6 6 5 5 5 4 4 4 4 4 4 3
4 5 4 4 4 4 4 4 5 5 5 4 4 4 4 3 1 2 5 5 5 6 6 6 6 7 7 8 8 8 8 8 7 6 6 5 5 5 4 5 4 4 4
5 5 4 4 4 5 5 5 5 5 5 4 4 4 4 2 1 3 4 5 5 5 5 5 5 5 6 7 8 9 9 10 10 8 7 7 6 5 5 6 5 5 4
5 6 5 5 5 5 5 6 6 5 5 5 5 5 4 3 1 3 5 6 5 5 5 6 6 6 5 6 6 7 7 7 8 9 8 7 6 5 5 6 5 5 5
6 6 6 5 6 6 6 6 5 5 5 5 5 5 5 4 2 4 5 5 4 5 5 5 5 5 3 3 5 6 5 5 5 6 6 6 4 5 6 5 5 5 4
6 6 6 6 6 7 6 6 6 5 6 6 5 5 5 5 3 3 4 4 4 4 4 4 4 4 3 3 5 5 5 5 4 4 5 7 7 6 8 7 6 5 5
7 6 6 6 6 6 6 6 6 6 5 6 6 6 5 5 3 3 4 5 4 4 4 3 2 3 4 4 5 4 4 4 4 5 5 5 5 4 5 5 4 5 5
7 6 6 6 6 5 6 6 6 6 6 6 5 6 5 4 3 2 3 5 6 4 4 3 1 2 3 4 4 4 4 5 5 4 4 3 3 3 2 2 3 4 4
7 7 7 7 6 6 6 6 6 5 5 5 5 5 4 4 1 1 3 4 5 4 3 2 2 3 4 5 5 6 6 5 4 4 3 3 2 1 2 2 3 4 4
7 7 7 6 6 5 5 5 5 5 5 5 5 5 4 4 3 2 2 2 3 4 3 3 5 6 5 3 3 4 4 3 3 3 2 2 2 2 3 3 3 4 3
7 7 7 6 6 5 4 4 6 4 5 6 6 5 5 4 4 5 5 4 5 4 5 4 3 2 2 2 2 2 2 2 3 2 2 2 2 2 2 2 3 3 3
7 7 6 6 5 5 5 4 2 4 3 3 5 6 5 4 4 4 4 5 5 5 5 4 3 3 2 2 2 2 2 1 1 2 2 2 2 2 2 2 3 3 3
7 7 6 6 5 5 5 6 5 3 5 5 5 5 6 6 5 5 5 5 5 4 4 3 2 2 2 2 2 2 1 1 2 2 2 2 2 2 2 2 2 2 2
7 6 6 5 6 6 5 6 5 5 4 3 3 5 6 6 6 6 6 5 4 4 3 2 2 2 2 2 2 2 1 2 2 2 2 2 2 2 2 2 2 2 2
7 6 5 6 6 6 5 5 5 5 5 4 3 2 5 6 7 6 5 4 3 2 2 2 2 2 2 2 2 1 2 2 2 2 1 2 2 2 2 2 2 2 3
5 5 6 6 6 6 5 5 4 5 5 5 4 4 2 3 3 2 3 3 3 2 2 2 2 2 2 2 1 1 1 1 2 2 1 2 2 2 2 2 2 2 2
6 5 5 6 5 5 5 5 5 5 5 4 4 3 4 5 4 3 2 2 2 2 2 3 3 2 2 2 2 2 2 2 1 2 2 2 2 2 2 2 2 2 1
7 7 6 5 5 5 5 5 5 5 5 6 4 2 2 4 3 3 2 2 2 2 2 3 3 2 2 2 1 2 2 2 2 2 2 2 2 2 2 2 2 1 1
7 7 6 6 5 5 5 5 5 5 5 5 4 4 3 3 3 3 3 2 2 2 2 2 2 2 1 1 1 2 2 2 2 2 2 2 2 2 2 2 2 2 1
7 7 7 6 6 5 5 5 5 5 5 5 4 4 3 3 3 3 3 3 2 2 2 2 2 1 1 1 1 1 1 2 3 2 3 3 3 2 2 2 2 2 1
7 6 6 6 6 6 5 5 5 5 5 4 4 4 4 3 3 3 3 2 2 2 2 2 1 1 1 1 2 3 5 4 4 4 3 3 3 2 2 2 2 2 2
6 6 6 5 5 5 6 5 5 5 5 4 4 4 4 3 3 2 2 2 2 1 1 1 1 1 1 1 2 3 2 1 2 4 4 3 3 2 2 2 3 3 3
Wind_Direction
308 306 303 295 293 292 291 291 292 289 280 273 270 266 260 255 247 236 240 235 234 236 238 234 237 243 243 243 241 241 241 243 247 250 243 225 230 248 245 246 245 239 217
307 308 302 302 303 299 300 296 293 289 280 275 275 270 262 258 251 240 238 240 240 240 239 239 238 236 233 237 240 241 242 243 243 245 244 235 233 237 241 244 248 242 243
305 302 302 303 304 305 310 312 308 299 291 286 279 275 270 265 258 246 238 244 244 243 241 242 240 237 238 234 234 238 241 238 235 240 242 238 235 231 236 239 244 244 241
311 311 311 311 314 314 316 318 315 307 296 289 281 278 273 265 260 253 243 242 246 247 244 243 242 239 240 237 232 232 237 239 234 233 237 235 233 226 227 229 236 228 235
318 313 312 314 313 314 318 316 316 308 295 285 277 274 268 257 259 263 254 246 246 249 246 242 245 244 247 246 243 232 230 233 233 231 234 235 234 226 229 241 245 238 232
333 328 328 319 317 317 315 312 312 309 300 283 270 274 272 273 320 289 271 263 256 256 257 252 247 230 230 229 238 239 240 235 236 238 239 238 238 238 242 246 246 243 244
329 325 326 321 320 320 319 316 315 311 304 292 283 279 276 289 286 265 266 264 263 260 258 257 258 253 239 236 220 217 228 235 237 245 247 245 241 240 247 250 250 254 259
329 327 325 322 318 317 315 316 313 307 303 295 292 289 283 290 270 260 266 256 259 256 256 258 260 262 258 251 241 234 234 232 231 231 239 245 245 240 242 251 251 248 246
332 330 328 324 318 316 315 312 309 307 303 298 295 295 292 292 276 259 258 265 256 257 258 261 260 259 266 242 235 238 242 245 237 234 238 241 255 252 249 247 243 244 247
331 328 326 321 316 314 310 304 304 303 299 299 300 296 293 295 297 268 260 265 266 267 264 262 257 253 262 229 233 240 243 251 254 237 225 221 225 225 223 233 243 246 251
326 323 321 317 311 307 306 306 305 298 299 297 297 294 291 292 282 257 255 265 275 277 276 273 269 191 227 238 241 245 251 261 259 251 245 232 220 214 216 224 245 253 256
321 319 316 311 306 307 305 304 303 299 293 285 284 286 288 285 286 270 241 254 281 280 283 288 291 174 215 235 235 237 240 246 243 239 243 242 235 231 229 239 241 251 255
316 315 312 307 303 301 300 300 299 295 293 297 296 300 305 306 307 185 228 244 256 263 285 311 297 252 243 232 218 221 227 233 235 235 242 250 259 253 237 223 225 225 231
312 311 309 306 303 306 305 302 304 309 307 306 307 311 314 309 317 328 308 275 241 239 259 243 219 226 234 247 223 214 227 238 243 247 251 256 254 236 229 229 225 218 224
311 310 309 310 314 314 308 310 309 317 324 312 315 314 310 310 344 351 324 315 317 331 315 274 259 247 237 226 224 231 232 225 228 237 236 241 246 239 234 234 244 236 235
307 309 310 311 314 309 309 301 276 269 275 266 276 292 304 317 318 317 312 302 293 288 278 265 264 259 260 261 249 243 246 240 235 242 246 247 245 244 245 244 243 246 249
305 307 307 311 312 308 310 308 306 271 230 232 240 248 262 285 285 282 282 280 265 250 249 267 273 275 272 269 273 270 266 238 231 240 243 245 249 243 240 245 249 251 256
302 300 299 304 305 305 304 302 301 303 301 285 227 219 237 254 259 262 261 261 247 227 258 276 276 269 265 266 280 291 279 249 230 239 238 234 238 245 244 239 242 253 261
300 303 307 305 300 298 302 305 307 309 307 304 301 235 220 238 235 236 235 258 274 279 276 279 278 281 281 285 283 272 263 258 260 251 250 250 238 239 247 249 242 234 244
292 293 295 297 298 300 301 303 306 306 307 308 308 312 306 265 262 234 228 265 280 289 292 294 298 296 288 280 269 259 263 262 260 254 253 252 244 242 247 250 249 237 230
300 297 272 280 294 300 302 304 305 304 305 304 307 330 321 301 305 306 292 263 268 280 288 291 286 281 275 266 268 260 264 275 272 271 263 249 242 239 247 246 246 250 243
304 304 302 303 303 300 301 299 299 300 301 302 302 289 233 280 304 303 300 281 273 277 277 277 280 285 286 289 283 270 269 273 286 281 264 255 249 240 240 244 243 252 238
295 300 302 303 302 303 293 298 303 304 305 307 310 313 316 320 320 314 306 295 278 270 266 264 270 280 306 317 304 286 287 294 295 291 283 275 274 268 244 237 237 242 245
300 303 307 308 305 305 306 303 304 308 313 313 312 313 318 315 312 306 297 288 278 262 256 262 276 302 305 302 293 292 11 358 317 281 274 274 272 268 251 234 234 236 206
299 305 307 308 306 307 305 304 308 310 310 308 312 313 312 312 306 296 295 292 293 296 291 285 288 294 303 326 342 18 43 21 347 321 277 271 266 261 255 244 241 242 215
306 311 310 311 310 310 308 305 309 313 311 311 315 313 311 310 305 311 322 316 311 317 313 315 6 359 337 4 32 45 56 19 334 312 293 271 255 249 250 240 232 218 200